| time (UTC) | temp F | wind direction | speed knots | gust knots | rain 1hr in | rain 24hr in | rain mn in | humidity % | barometer mb |
| 20260901030426 | 80 | 250 | 0.0 | 1.7 | 0.00 | 0.00 | 0.00 | 88 | 1016.9 |
| 20260901025924 | 80 | 231 | 0.9 | 0.9 | 0.00 | 0.00 | 0.00 | 88 | 1016.8 |
| 20260901025420 | 80 | 149 | 0.0 | 0.0 | 0.00 | 0.00 | 0.00 | 88 | 1016.9 |
| 20260901024914 | 80 | 110 | 0.0 | 0.0 | 0.00 | 0.00 | 0.00 | 89 | 1017.0 |
| 20260901024413 | 80 | 149 | 0.0 | 0.0 | 0.00 | 0.00 | 0.00 | 88 | 1017.0 |
| 20260901023912 | 80 | 250 | 0.0 | 0.0 | 0.00 | 0.00 | 0.00 | 88 | 1016.8 |
| 20260901023407 | 80 | 44 | 0.0 | 0.0 | 0.00 | 0.00 | 0.00 | 88 | 1016.8 |
| 20260901022903 | 80 | 211 | 0.0 | 0.9 | 0.00 | 0.00 | 0.00 | 88 | 1016.9 |
| 20260901022358 | 81 | 223 | 0.0 | 0.0 | 0.00 | 0.00 | 0.00 | 87 | 1016.8 |
| 20260901021853 | 81 | 266 | 0.0 | 0.0 | 0.00 | 0.00 | 0.00 | 87 | 1016.8 |
| 20260901021348 | 81 | 70 | 0.0 | 0.9 | 0.00 | 0.00 | 0.00 | 87 | 1016.9 |
| 20260901020843 | 81 | 325 | 0.0 | 0.0 | 0.00 | 0.00 | 0.00 | 87 | 1016.8 |
| 20260901020339 | 81 | 198 | 0.0 | 1.7 | 0.00 | 0.00 | 0.00 | 87 | 1016.8 |
| 20260901015838 | 81 | 18 | 0.0 | 0.0 | 0.00 | 0.00 | 0.00 | 87 | 1016.8 |
| 20260901015335 | 81 | 223 | 0.0 | 0.0 | 0.00 | 0.00 | 0.00 | 87 | 1016.5 |
| 20260901014834 | 81 | 308 | 0.0 | 0.0 | 0.00 | 0.00 | 0.00 | 87 | 1016.6 |
| 20260901014330 | 81 | 205 | 0.0 | 0.0 | 0.00 | 0.00 | 0.00 | 87 | 1016.5 |
| 20260901013825 | 81 | 223 | 0.0 | 1.7 | 0.00 | 0.00 | 0.00 | 86 | 1016.4 |
| 20260901013321 | 81 | 356 | 0.0 | 0.0 | 0.00 | 0.00 | 0.00 | 86 | 1016.3 |
| 20260901012816 | 81 | 183 | 0.0 | 0.9 | 0.00 | 0.00 | 0.00 | 86 | 1016.2 |
| 20260901012311 | 81 | 127 | 0.0 | 1.7 | 0.00 | 0.00 | 0.00 | 86 | 1016.0 |
| 20260901011807 | 82 | 210 | 0.0 | 0.9 | 0.00 | 0.00 | 0.00 | 85 | 1016.0 |
| 20260901011302 | 82 | 31 | 0.0 | 0.9 | 0.00 | 0.00 | 0.00 | 85 | 1015.7 |
| 20260901010755 | 82 | 30 | 0.9 | 0.9 | 0.00 | 0.00 | 0.00 | 85 | 1015.8 |
| 20260901010250 | 82 | 250 | 0.0 | 1.7 | 0.00 | 0.00 | 0.00 | 85 | 1015.7 |
| 20260901005749 | 82 | 218 | 0.0 | 0.9 | 0.00 | 0.00 | 0.00 | 84 | 1015.8 |
| 20260901005245 | 82 | 146 | 0.0 | 1.7 | 0.00 | 0.00 | 0.00 | 83 | 1015.9 |
| 20260901004744 | 82 | 41 | 1.7 | 1.7 | 0.00 | 0.00 | 0.00 | 82 | 1015.8 |
| 20260901004239 | 82 | 57 | 0.0 | 1.7 | 0.00 | 0.00 | 0.00 | 83 | 1015.9 |
| 20260901003733 | 82 | 87 | 0.0 | 0.9 | 0.00 | 0.00 | 0.00 | 83 | 1015.7 |
| 20260901003228 | 82 | 178 | 0.9 | 1.7 | 0.00 | 0.00 | 0.00 | 83 | 1015.7 |
| 20260901002726 | 82 | 56 | 0.0 | 0.9 | 0.00 | 0.00 | 0.00 | 82 | 1015.9 |
| 20260901002222 | 82 | 98 | 0.0 | 0.9 | 0.00 | 0.00 | 0.00 | 82 | 1015.9 |
| 20260901001717 | 82 | 21 | 1.7 | 2.6 | 0.00 | 0.00 | 0.00 | 81 | 1015.7 |
| 20260901001212 | 83 | 181 | 0.0 | 1.7 | 0.00 | 0.00 | 0.00 | 81 | 1015.8 |
| 20260901000708 | 83 | 4 | 0.0 | 1.7 | 0.00 | 0.00 | 0.00 | 80 | 1015.8 |
| 20260901000204 | 83 | 73 | 0.9 | 1.7 | 0.00 | 0.00 | 0.00 | 80 | 1016.0 |
| 20260831235702 | 83 | 309 | 0.0 | 0.9 | 0.00 | 0.00 | 0.00 | 79 | 1015.6 |
| 20260831235158 | 83 | 193 | 0.0 | 2.6 | 0.00 | 0.00 | 0.00 | 79 | 1015.7 |
| 20260831234657 | 84 | 180 | 0.0 | 1.7 | 0.00 | 0.00 | 0.00 | 78 | 1015.8 |
| 20260831234152 | 84 | 122 | 0.0 | 1.7 | 0.00 | 0.00 | 0.00 | 77 | 1015.7 |
| 20260831233648 | 84 | 151 | 0.0 | 2.6 | 0.00 | 0.00 | 0.00 | 76 | 1015.9 |
| 20260831233143 | 84 | 100 | 0.0 | 1.7 | 0.00 | 0.00 | 0.00 | 75 | 1015.9 |
| 20260831232638 | 85 | 137 | 0.0 | 1.7 | 0.00 | 0.00 | 0.00 | 75 | 1015.8 |
| 20260831232134 | 85 | 131 | 1.7 | 2.6 | 0.00 | 0.00 | 0.00 | 73 | 1015.8 |
| 20260831231629 | 87 | 127 | 0.0 | 2.6 | 0.00 | 0.00 | 0.00 | 70 | 1015.8 |
| 20260831231125 | 88 | 53 | 0.9 | 2.6 | 0.00 | 0.00 | 0.00 | 68 | 1015.8 |
| 20260831230616 | 88 | 218 | 0.0 | 1.7 | 0.00 | 0.00 | 0.00 | 66 | 1016.0 |
| 20260831230115 | 88 | 184 | 1.7 | 1.7 | 0.00 | 0.00 | 0.00 | 65 | 1016.0 |
| 20260831225610 | 88 | 166 | 0.0 | 1.7 | 0.00 | 0.00 | 0.00 | 65 | 1015.9 |
| 20260831225105 | 89 | 151 | 1.7 | 1.7 | 0.00 | 0.00 | 0.00 | 65 | 1015.8 |
| 20260831224600 | 88 | 35 | 0.0 | 2.6 | 0.00 | 0.00 | 0.00 | 66 | 1015.7 |
| 20260831224055 | 88 | 131 | 2.6 | 3.5 | 0.00 | 0.00 | 0.00 | 66 | 1015.9 |
| 20260831223551 | 89 | 135 | 2.6 | 2.6 | 0.00 | 0.00 | 0.00 | 64 | 1015.7 |
| 20260831223047 | 89 | 138 | 0.0 | 1.7 | 0.00 | 0.00 | 0.00 | 65 | 1016.0 |
| 20260831222543 | 89 | 123 | 0.0 | 3.5 | 0.00 | 0.00 | 0.00 | 62 | 1015.5 |
| 20260831222042 | 90 | 97 | 0.0 | 1.7 | 0.00 | 0.00 | 0.00 | 61 | 1015.6 |
| 20260831221538 | 91 | 199 | 1.7 | 2.6 | 0.00 | 0.00 | 0.00 | 60 | 1015.4 |
| 20260831221033 | 90 | 102 | 0.9 | 1.7 | 0.00 | 0.00 | 0.00 | 60 | 1015.4 |
| 20260831220528 | 90 | 145 | 1.7 | 2.6 | 0.00 | 0.00 | 0.00 | 61 | 1015.4 |
| 20260831220024 | 90 | 199 | 0.0 | 2.6 | 0.00 | 0.00 | 0.00 | 61 | 1015.3 |
| 20260831215519 | 90 | 105 | 1.7 | 2.6 | 0.00 | 0.00 | 0.00 | 60 | 1015.5 |
| 20260831215015 | 90 | 99 | 0.9 | 2.6 | 0.00 | 0.00 | 0.00 | 63 | 1015.3 |
| 20260831214512 | 89 | 103 | 0.0 | 2.6 | 0.00 | 0.00 | 0.00 | 63 | 1015.4 |
| 20260831214008 | 89 | 151 | 0.0 | 3.5 | 0.00 | 0.00 | 0.00 | 64 | 1015.4 |
| 20260831213504 | 90 | 89 | 1.7 | 2.6 | 0.00 | 0.00 | 0.00 | 63 | 1015.4 |
| 20260831212959 | 90 | 91 | 0.0 | 4.3 | 0.00 | 0.00 | 0.00 | 62 | 1015.4 |
| 20260831212455 | 92 | 76 | 1.7 | 2.6 | 0.00 | 0.00 | 0.00 | 59 | 1015.3 |
| 20260831211954 | 92 | 87 | 0.9 | 1.7 | 0.00 | 0.00 | 0.00 | 59 | 1015.3 |
| 20260831211450 | 92 | 123 | 1.7 | 4.3 | 0.00 | 0.00 | 0.00 | 59 | 1015.3 |
| 20260831210949 | 91 | 146 | 0.9 | 2.6 | 0.00 | 0.00 | 0.00 | 60 | 1015.4 |
| 20260831210444 | 90 | 120 | 1.7 | 3.5 | 0.00 | 0.00 | 0.00 | 62 | 1015.4 |
| 20260831205940 | 90 | 144 | 1.7 | 2.6 | 0.00 | 0.00 | 0.00 | 60 | 1015.5 |
| 20260831205436 | 91 | 147 | 3.5 | 3.5 | 0.00 | 0.00 | 0.00 | 60 | 1015.1 |
| 20260831204931 | 91 | 157 | 3.5 | 3.5 | 0.00 | 0.00 | 0.00 | 60 | 1015.4 |
| 20260831204430 | 91 | 134 | 0.9 | 4.3 | 0.00 | 0.00 | 0.00 | 58 | 1015.5 |
| 20260831203930 | 91 | 86 | 0.9 | 6.1 | 0.00 | 0.00 | 0.00 | 57 | 1015.3 |
| 20260831203424 | 91 | 38 | 1.7 | 2.6 | 0.00 | 0.00 | 0.00 | 57 | 1015.7 |
| 20260831202922 | 90 | 172 | 0.0 | 2.6 | 0.00 | 0.00 | 0.00 | 61 | 1015.3 |
| 20260831202418 | 90 | 109 | 1.7 | 2.6 | 0.00 | 0.00 | 0.00 | 62 | 1015.3 |
| 20260831201912 | 90 | 88 | 0.9 | 2.6 | 0.00 | 0.00 | 0.00 | 61 | 1015.2 |
| 20260831201410 | 89 | 81 | 2.6 | 4.3 | 0.00 | 0.00 | 0.00 | 62 | 1015.2 |
| 20260831200907 | 91 | 30 | 1.7 | 3.5 | 0.00 | 0.00 | 0.00 | 60 | 1015.5 |
| 20260831200402 | 91 | 63 | 2.6 | 4.3 | 0.00 | 0.00 | 0.00 | 60 | 1015.6 |
| 20260831195856 | 91 | 56 | 1.7 | 4.3 | 0.00 | 0.00 | 0.00 | 59 | 1015.6 |
| 20260831195352 | 91 | 21 | 3.5 | 4.3 | 0.00 | 0.00 | 0.00 | 58 | 1015.3 |
| 20260831194847 | 90 | 35 | 3.5 | 3.5 | 0.00 | 0.00 | 0.00 | 59 | 1015.6 |
| 20260831194343 | 91 | 102 | 1.7 | 2.6 | 0.00 | 0.00 | 0.00 | 59 | 1015.7 |
| 20260831193842 | 91 | 149 | 0.0 | 3.5 | 0.00 | 0.00 | 0.00 | 58 | 1015.7 |
| 20260831193337 | 90 | 53 | 0.0 | 3.5 | 0.00 | 0.00 | 0.00 | 59 | 1015.6 |
| 20260831192832 | 89 | 166 | 1.7 | 6.1 | 0.00 | 0.00 | 0.00 | 62 | 1015.7 |
| 20260831192332 | 90 | 88 | 1.7 | 4.3 | 0.00 | 0.00 | 0.00 | 61 | 1015.7 |
| 20260831191828 | 90 | 106 | 0.9 | 3.5 | 0.00 | 0.00 | 0.00 | 61 | 1015.8 |
| 20260831191324 | 91 | 114 | 0.0 | 2.6 | 0.00 | 0.00 | 0.00 | 61 | 1015.7 |
| 20260831190819 | 90 | 139 | 2.6 | 3.5 | 0.00 | 0.00 | 0.00 | 63 | 1015.9 |
| 20260831190314 | 90 | 172 | 2.6 | 3.5 | 0.00 | 0.00 | 0.00 | 63 | 1016.2 |
| 20260831185813 | 91 | 82 | 0.9 | 2.6 | 0.00 | 0.00 | 0.00 | 60 | 1016.1 |
| 20260831185309 | 91 | 121 | 0.0 | 3.5 | 0.00 | 0.00 | 0.00 | 60 | 1016.1 |
| 20260831184808 | 90 | 116 | 1.7 | 3.5 | 0.00 | 0.00 | 0.00 | 60 | 1016.2 |
| 20260831184304 | 91 | 78 | 3.5 | 4.3 | 0.00 | 0.00 | 0.00 | 60 | 1016.4 |
| 20260831183759 | 90 | 112 | 2.6 | 2.6 | 0.00 | 0.00 | 0.00 | 63 | 1016.2 |
| 20260831183258 | 90 | 65 | 0.9 | 3.5 | 0.00 | 0.00 | 0.00 | 62 | 1016.4 |
| 20260831182757 | 90 | 44 | 1.7 | 4.3 | 0.00 | 0.00 | 0.00 | 62 | 1016.6 |
| 20260831182252 | 90 | 172 | 0.0 | 5.2 | 0.00 | 0.00 | 0.00 | 63 | 1016.4 |
| 20260831181748 | 90 | 134 | 3.5 | 3.5 | 0.00 | 0.00 | 0.00 | 64 | 1016.4 |
| 20260831181243 | 91 | 22 | 2.6 | 4.3 | 0.00 | 0.00 | 0.00 | 60 | 1016.3 |
| 20260831180743 | 89 | 102 | 2.6 | 3.5 | 0.00 | 0.00 | 0.00 | 64 | 1016.5 |
| 20260831180238 | 89 | 69 | 1.7 | 4.3 | 0.00 | 0.00 | 0.00 | 65 | 1016.6 |
| 20260831175737 | 88 | 90 | 0.0 | 4.3 | 0.00 | 0.00 | 0.00 | 67 | 1016.4 |
| 20260831175234 | 88 | 358 | 2.6 | 5.2 | 0.00 | 0.00 | 0.00 | 66 | 1016.6 |
| 20260831174729 | 89 | 7 | 2.6 | 3.5 | 0.00 | 0.00 | 0.00 | 65 | 1016.7 |
| 20260831174224 | 88 | 143 | 1.7 | 3.5 | 0.00 | 0.00 | 0.00 | 68 | 1016.6 |
| 20260831173723 | 89 | 74 | 0.9 | 3.5 | 0.00 | 0.00 | 0.00 | 66 | 1017.0 |
| 20260831173218 | 89 | 175 | 1.7 | 4.3 | 0.00 | 0.00 | 0.00 | 67 | 1017.2 |
| 20260831172713 | 90 | 178 | 4.3 | 4.3 | 0.00 | 0.00 | 0.00 | 67 | 1017.0 |
| 20260831172208 | 89 | 113 | 2.6 | 4.3 | 0.00 | 0.00 | 0.00 | 68 | 1017.1 |
| 20260831171702 | 88 | 149 | 2.6 | 4.3 | 0.00 | 0.00 | 0.00 | 68 | 1017.1 |
| 20260831171200 | 89 | 136 | 0.9 | 4.3 | 0.00 | 0.00 | 0.00 | 67 | 1017.1 |
| 20260831170656 | 89 | 142 | 0.0 | 2.6 | 0.00 | 0.00 | 0.00 | 66 | 1017.2 |
| 20260831170153 | 90 | 280 | 0.9 | 2.6 | 0.00 | 0.00 | 0.00 | 66 | 1017.1 |
| 20260831165649 | 89 | 165 | 0.9 | 2.6 | 0.00 | 0.00 | 0.00 | 68 | 1017.2 |
| 20260831165145 | 89 | 63 | 1.7 | 3.5 | 0.00 | 0.00 | 0.00 | 67 | 1017.3 |
| 20260831164640 | 88 | 68 | 0.0 | 3.5 | 0.00 | 0.00 | 0.00 | 70 | 1017.2 |
| 20260831164136 | 87 | 61 | 0.0 | 5.2 | 0.00 | 0.00 | 0.00 | 70 | 1017.4 |
| 20260831163631 | 87 | 57 | 0.9 | 3.5 | 0.00 | 0.00 | 0.00 | 71 | 1017.5 |
| 20260831163127 | 87 | 18 | 2.6 | 3.5 | 0.00 | 0.00 | 0.00 | 72 | 1017.3 |
| 20260831162626 | 87 | 39 | 2.6 | 5.2 | 0.00 | 0.00 | 0.00 | 72 | 1017.7 |
| 20260831162124 | 87 | 46 | 0.0 | 3.5 | 0.00 | 0.00 | 0.00 | 71 | 1017.5 |
| 20260831161620 | 87 | 52 | 0.0 | 3.5 | 0.00 | 0.00 | 0.00 | 72 | 1017.7 |
| 20260831161116 | 86 | 165 | 0.9 | 2.6 | 0.00 | 0.00 | 0.00 | 74 | 1017.8 |
| 20260831160615 | 87 | 23 | 1.7 | 3.5 | 0.00 | 0.00 | 0.00 | 73 | 1017.6 |
| 20260831160111 | 87 | 150 | 0.9 | 5.2 | 0.00 | 0.00 | 0.00 | 72 | 1017.6 |
| 20260831155605 | 89 | 96 | 0.9 | 3.5 | 0.00 | 0.00 | 0.00 | 69 | 1017.5 |
| 20260831155101 | 89 | 45 | 0.9 | 3.5 | 0.00 | 0.00 | 0.00 | 67 | 1017.8 |
| 20260831154556 | 88 | 134 | 1.7 | 1.7 | 0.00 | 0.00 | 0.00 | 69 | 1017.8 |
| 20260831154056 | 88 | 160 | 4.3 | 5.2 | 0.00 | 0.00 | 0.00 | 69 | 1017.7 |
| 20260831153555 | 88 | 100 | 2.6 | 3.5 | 0.00 | 0.00 | 0.00 | 68 | 1017.8 |
| 20260831153053 | 87 | 44 | 0.0 | 4.3 | 0.00 | 0.00 | 0.00 | 70 | 1017.8 |
| 20260831152547 | 87 | 39 | 2.6 | 3.5 | 0.00 | 0.00 | 0.00 | 71 | 1017.7 |
| 20260831152043 | 87 | 359 | 2.6 | 4.3 | 0.00 | 0.00 | 0.00 | 71 | 1017.7 |
| 20260831151542 | 87 | 207 | 0.9 | 2.6 | 0.00 | 0.00 | 0.00 | 73 | 1017.7 |
| 20260831151037 | 86 | 77 | 1.7 | 3.5 | 0.00 | 0.00 | 0.00 | 75 | 1017.9 |
| 20260831150532 | 85 | 233 | 0.0 | 2.6 | 0.00 | 0.00 | 0.00 | 75 | 1017.6 |
| 20260831150028 | 85 | 31 | 0.0 | 1.7 | 0.00 | 0.00 | 0.00 | 76 | 1017.5 |
| 20260831145522 | 85 | 37 | 0.0 | 0.9 | 0.00 | 0.00 | 0.00 | 77 | 1017.7 |
| 20260831145019 | 85 | 210 | 1.7 | 2.6 | 0.00 | 0.00 | 0.00 | 76 | 1017.7 |
| 20260831144514 | 86 | 266 | 0.0 | 1.7 | 0.00 | 0.00 | 0.00 | 74 | 1017.8 |
| 20260831144009 | 86 | 292 | 6.1 | 6.1 | 0.00 | 0.00 | 0.00 | 75 | 1017.5 |
| 20260831143504 | 86 | 335 | 0.9 | 1.7 | 0.00 | 0.00 | 0.00 | 75 | 1017.6 |
| 20260831142959 | 86 | 142 | 0.0 | 3.5 | 0.00 | 0.00 | 0.00 | 76 | 1017.3 |
| 20260831142456 | 85 | 296 | 0.0 | 2.6 | 0.00 | 0.00 | 0.00 | 76 | 1017.4 |
| 20260831141950 | 85 | 268 | 1.7 | 1.7 | 0.00 | 0.00 | 0.00 | 77 | 1017.4 |
| 20260831141449 | 84 | 113 | 0.0 | 1.7 | 0.00 | 0.00 | 0.00 | 78 | 1017.1 |
| 20260831140944 | 84 | 289 | 2.6 | 2.6 | 0.00 | 0.00 | 0.00 | 79 | 1017.0 |
| 20260831140439 | 83 | 186 | 0.0 | 2.6 | 0.00 | 0.00 | 0.00 | 79 | 1017.0 |
| 20260831135938 | 83 | 58 | 0.9 | 0.9 | 0.00 | 0.00 | 0.00 | 80 | 1016.8 |
| 20260831135437 | 83 | 226 | 1.7 | 4.3 | 0.00 | 0.00 | 0.00 | 80 | 1016.9 |
| 20260831134932 | 83 | 48 | 0.0 | 1.7 | 0.00 | 0.00 | 0.00 | 80 | 1016.9 |
| 20260831134429 | 82 | 296 | 4.3 | 4.3 | 0.00 | 0.00 | 0.00 | 80 | 1016.9 |
| 20260831133928 | 82 | 283 | 0.9 | 3.5 | 0.00 | 0.00 | 0.00 | 81 | 1016.9 |
| 20260831133428 | 82 | 331 | 1.7 | 3.5 | 0.00 | 0.00 | 0.00 | 81 | 1016.6 |
| 20260831132923 | 82 | 300 | 1.7 | 2.6 | 0.00 | 0.00 | 0.00 | 82 | 1016.5 |
| 20260831132419 | 81 | 256 | 1.7 | 2.6 | 0.00 | 0.00 | 0.00 | 85 | 1016.7 |
| 20260831131918 | 81 | 42 | 1.7 | 2.6 | 0.00 | 0.00 | 0.00 | 84 | 1016.8 |
| 20260831131414 | 81 | 29 | 1.7 | 1.7 | 0.00 | 0.00 | 0.00 | 85 | 1016.9 |
| 20260831130909 | 81 | 107 | 0.9 | 1.7 | 0.00 | 0.00 | 0.00 | 86 | 1017.0 |
| 20260831130405 | 80 | 275 | 0.0 | 1.7 | 0.00 | 0.00 | 0.00 | 85 | 1016.9 |
| 20260831125904 | 80 | 134 | 0.9 | 2.6 | 0.00 | 0.00 | 0.00 | 86 | 1016.8 |
| 20260831125359 | 80 | 100 | 0.9 | 1.7 | 0.00 | 0.00 | 0.00 | 87 | 1016.5 |
| 20260831124854 | 80 | 28 | 1.7 | 1.7 | 0.00 | 0.00 | 0.00 | 87 | 1016.4 |
| 20260831124350 | 80 | 238 | 0.0 | 0.9 | 0.00 | 0.00 | 0.00 | 88 | 1016.7 |
| 20260831123845 | 80 | 222 | 0.0 | 2.6 | 0.00 | 0.00 | 0.00 | 88 | 1016.8 |
| 20260831123344 | 79 | 290 | 0.0 | 2.6 | 0.00 | 0.00 | 0.00 | 88 | 1016.6 |
| 20260831122839 | 79 | 323 | 0.0 | 0.9 | 0.00 | 0.00 | 0.00 | 88 | 1016.7 |
| 20260831122334 | 79 | 236 | 0.0 | 0.9 | 0.00 | 0.00 | 0.00 | 89 | 1016.5 |
| 20260831121834 | 79 | 43 | 0.0 | 0.9 | 0.00 | 0.00 | 0.00 | 89 | 1016.4 |
| 20260831121330 | 79 | 139 | 0.0 | 1.7 | 0.00 | 0.00 | 0.00 | 90 | 1016.2 |
| 20260831120826 | 79 | 196 | 0.0 | 0.9 | 0.00 | 0.00 | 0.00 | 90 | 1016.3 |
| 20260831120320 | 79 | 24 | 1.7 | 2.6 | 0.00 | 0.00 | 0.00 | 90 | 1016.3 |
| 20260831115815 | 78 | 27 | 0.9 | 1.7 | 0.00 | 0.00 | 0.00 | 93 | 1016.3 |
| 20260831115312 | 78 | 98 | 0.0 | 0.0 | 0.00 | 0.00 | 0.00 | 95 | 1016.3 |
| 20260831114811 | 78 | 308 | 0.0 | 0.0 | 0.00 | 0.00 | 0.00 | 95 | 1016.1 |
| 20260831114310 | 78 | 236 | 0.0 | 0.0 | 0.00 | 0.00 | 0.00 | 96 | 1016.1 |
| 20260831113806 | 78 | 238 | 0.0 | 0.9 | 0.00 | 0.00 | 0.00 | 96 | 1016.0 |
| 20260831113305 | 78 | 155 | 0.0 | 0.9 | 0.00 | 0.00 | 0.00 | 96 | 1015.9 |
| 20260831112800 | 78 | 10 | 0.0 | 0.0 | 0.00 | 0.00 | 0.00 | 96 | 1015.9 |
| 20260831112255 | 78 | 70 | 0.0 | 0.0 | 0.00 | 0.00 | 0.00 | 96 | 1015.9 |
| 20260831111750 | 78 | 140 | 0.0 | 0.0 | 0.00 | 0.00 | 0.00 | 96 | 1015.9 |
| 20260831111247 | 78 | 110 | 0.0 | 0.0 | 0.00 | 0.00 | 0.00 | 97 | 1016.0 |
| 20260831110742 | 78 | 0 | 0.0 | 0.0 | 0.00 | 0.00 | 0.00 | 97 | 1015.8 |
| 20260831110237 | 78 | 91 | 0.0 | 0.0 | 0.00 | 0.00 | 0.00 | 97 | 1015.8 |
| 20260831105735 | 78 | 110 | 0.0 | 0.0 | 0.00 | 0.00 | 0.00 | 97 | 1015.8 |
| 20260831105232 | 78 | 123 | 0.0 | 0.0 | 0.00 | 0.00 | 0.00 | 97 | 1015.7 |
| 20260831104726 | 78 | 84 | 0.0 | 0.0 | 0.00 | 0.00 | 0.00 | 97 | 1015.8 |
| 20260831104223 | 78 | 104 | 0.0 | 0.9 | 0.00 | 0.00 | 0.00 | 97 | 1015.5 |
| 20260831103722 | 78 | 70 | 0.0 | 0.9 | 0.00 | 0.00 | 0.00 | 97 | 1015.6 |
| 20260831103218 | 78 | 9 | 0.0 | 1.7 | 0.00 | 0.00 | 0.00 | 97 | 1015.8 |
| 20260831102718 | 78 | 98 | 0.0 | 0.0 | 0.00 | 0.00 | 0.00 | 97 | 1015.5 |
| 20260831102213 | 78 | 146 | 0.0 | 1.7 | 0.00 | 0.00 | 0.00 | 97 | 1015.5 |
| 20260831101709 | 78 | 34 | 0.0 | 0.9 | 0.00 | 0.00 | 0.00 | 97 | 1015.3 |
| 20260831101204 | 78 | 237 | 0.0 | 0.0 | 0.00 | 0.00 | 0.00 | 97 | 1015.2 |
| 20260831100700 | 78 | 164 | 0.9 | 1.7 | 0.00 | 0.00 | 0.00 | 97 | 1015.4 |
| 20260831100156 | 78 | 10 | 0.0 | 0.9 | 0.00 | 0.00 | 0.00 | 97 | 1015.3 |
| 20260831095654 | 78 | 81 | 0.0 | 0.9 | 0.00 | 0.00 | 0.00 | 97 | 1015.4 |
| 20260831095149 | 78 | 327 | 0.0 | 0.0 | 0.00 | 0.00 | 0.00 | 97 | 1015.3 |
| 20260831094644 | 78 | 100 | 0.0 | 0.0 | 0.00 | 0.00 | 0.00 | 97 | 1015.3 |
| 20260831094140 | 78 | 103 | 0.0 | 0.9 | 0.00 | 0.00 | 0.00 | 97 | 1015.3 |
| 20260831093636 | 78 | 278 | 0.0 | 0.0 | 0.00 | 0.00 | 0.00 | 97 | 1015.4 |
| 20260831093131 | 78 | 120 | 0.0 | 0.0 | 0.00 | 0.00 | 0.00 | 97 | 1015.7 |
| 20260831092628 | 78 | 241 | 0.0 | 0.0 | 0.00 | 0.00 | 0.00 | 96 | 1015.3 |
| 20260831092123 | 78 | 174 | 0.0 | 0.0 | 0.00 | 0.00 | 0.00 | 96 | 1015.3 |
| 20260831091622 | 78 | 186 | 0.0 | 0.9 | 0.00 | 0.00 | 0.00 | 96 | 1015.3 |
| 20260831091118 | 78 | 315 | 0.0 | 0.0 | 0.00 | 0.00 | 0.00 | 96 | 1015.3 |
| 20260831090613 | 78 | 110 | 0.0 | 0.0 | 0.00 | 0.00 | 0.00 | 96 | 1015.3 |
| 20260831090109 | 78 | 211 | 0.0 | 0.0 | 0.00 | 0.00 | 0.00 | 96 | 1015.2 |
| 20260831085604 | 78 | 144 | 0.0 | 0.9 | 0.00 | 0.00 | 0.00 | 96 | 1015.4 |
| 20260831085100 | 78 | 290 | 0.0 | 0.0 | 0.00 | 0.00 | 0.00 | 96 | 1015.3 |
| 20260831084555 | 78 | 123 | 0.0 | 0.0 | 0.00 | 0.00 | 0.00 | 96 | 1015.3 |
| 20260831084052 | 77 | 123 | 0.0 | 0.0 | 0.00 | 0.00 | 0.00 | 96 | 1015.2 |
| 20260831083548 | 78 | 123 | 0.0 | 0.0 | 0.00 | 0.00 | 0.00 | 96 | 1015.3 |
| 20260831083042 | 77 | 43 | 0.0 | 0.0 | 0.00 | 0.00 | 0.00 | 96 | 1015.3 |
| 20260831082541 | 77 | 70 | 0.0 | 0.0 | 0.00 | 0.00 | 0.00 | 96 | 1015.3 |
| 20260831082037 | 77 | 70 | 0.0 | 0.0 | 0.00 | 0.00 | 0.00 | 96 | 1015.3 |
| 20260831081532 | 77 | 70 | 0.0 | 0.0 | 0.00 | 0.00 | 0.00 | 96 | 1015.1 |
| 20260831081029 | 78 | 70 | 0.0 | 0.0 | 0.00 | 0.00 | 0.00 | 96 | 1015.1 |
| 20260831080528 | 78 | 70 | 0.0 | 0.0 | 0.00 | 0.00 | 0.00 | 95 | 1015.2 |
| 20260831080024 | 78 | 70 | 0.0 | 0.0 | 0.00 | 0.00 | 0.00 | 95 | 1015.3 |
| 20260831075519 | 78 | 70 | 0.0 | 0.0 | 0.00 | 0.00 | 0.00 | 95 | 1015.3 |
| 20260831075015 | 78 | 70 | 0.0 | 0.0 | 0.00 | 0.00 | 0.00 | 95 | 1015.4 |
| 20260831074514 | 78 | 144 | 0.0 | 0.0 | 0.00 | 0.00 | 0.00 | 95 | 1015.3 |
| 20260831074014 | 78 | 144 | 0.0 | 0.0 | 0.00 | 0.00 | 0.00 | 95 | 1015.5 |
| 20260831073509 | 78 | 144 | 0.0 | 0.0 | 0.00 | 0.00 | 0.00 | 94 | 1015.2 |
| 20260831073008 | 78 | 144 | 0.0 | 0.0 | 0.00 | 0.00 | 0.00 | 94 | 1015.4 |
| 20260831072503 | 78 | 144 | 0.0 | 0.0 | 0.00 | 0.00 | 0.00 | 94 | 1015.5 |
| 20260831072000 | 78 | 144 | 0.0 | 0.0 | 0.00 | 0.00 | 0.00 | 94 | 1015.5 |
| 20260831071459 | 78 | 144 | 0.0 | 0.0 | 0.00 | 0.00 | 0.00 | 93 | 1015.7 |
| 20260831070954 | 78 | 198 | 0.0 | 0.0 | 0.00 | 0.00 | 0.00 | 93 | 1015.5 |
| 20260831070453 | 79 | 198 | 0.0 | 0.0 | 0.00 | 0.00 | 0.00 | 92 | 1015.6 |
| 20260831065952 | 79 | 31 | 0.0 | 0.0 | 0.00 | 0.00 | 0.00 | 92 | 1015.8 |
| 20260831065450 | 79 | 31 | 0.0 | 0.0 | 0.00 | 0.00 | 0.00 | 92 | 1015.7 |
| 20260831064945 | 79 | 31 | 0.0 | 0.0 | 0.00 | 0.00 | 0.00 | 92 | 1015.7 |
| 20260831064440 | 79 | 18 | 0.0 | 0.9 | 0.00 | 0.00 | 0.00 | 93 | 1015.9 |
| 20260831063936 | 79 | 123 | 0.0 | 0.0 | 0.00 | 0.00 | 0.00 | 92 | 1015.7 |
| 20260831063431 | 79 | 123 | 0.0 | 0.0 | 0.00 | 0.00 | 0.00 | 92 | 1015.7 |
| 20260831062925 | 79 | 6 | 0.0 | 0.0 | 0.00 | 0.00 | 0.00 | 92 | 1015.7 |
| 20260831062421 | 79 | 30 | 0.0 | 0.9 | 0.00 | 0.00 | 0.00 | 92 | 1016.0 |
| 20260831061920 | 79 | 176 | 0.0 | 0.0 | 0.00 | 0.00 | 0.00 | 91 | 1016.0 |
| 20260831061419 | 79 | 110 | 0.0 | 0.0 | 0.00 | 0.00 | 0.00 | 91 | 1015.9 |
| 20260831060915 | 79 | 112 | 0.0 | 0.0 | 0.00 | 0.00 | 0.00 | 91 | 1015.8 |
| 20260831060410 | 79 | 98 | 0.0 | 0.0 | 0.00 | 0.00 | 0.00 | 91 | 1015.9 |
| 20260831055909 | 79 | 98 | 0.0 | 0.0 | 0.00 | 0.00 | 0.00 | 91 | 1016.0 |
| 20260831055404 | 79 | 29 | 0.0 | 0.0 | 0.00 | 0.00 | 0.00 | 91 | 1016.2 |
| 20260831054859 | 78 | 265 | 0.0 | 0.0 | 0.00 | 0.00 | 0.00 | 91 | 1016.2 |
| 20260831054354 | 79 | 116 | 0.0 | 0.9 | 0.00 | 0.00 | 0.00 | 91 | 1016.3 |
| 20260831053853 | 79 | 31 | 0.0 | 0.0 | 0.00 | 0.00 | 0.00 | 91 | 1016.3 |
| 20260831053352 | 79 | 3 | 0.0 | 0.0 | 0.00 | 0.00 | 0.00 | 91 | 1016.4 |
| 20260831052847 | 79 | 196 | 0.0 | 0.9 | 0.00 | 0.00 | 0.00 | 90 | 1016.3 |
| 20260831052346 | 79 | 36 | 0.0 | 0.0 | 0.00 | 0.00 | 0.00 | 90 | 1016.2 |
| 20260831051844 | 79 | 36 | 0.0 | 0.0 | 0.00 | 0.00 | 0.00 | 90 | 1016.4 |
| 20260831051343 | 79 | 290 | 0.0 | 0.0 | 0.00 | 0.00 | 0.00 | 90 | 1016.3 |
| 20260831050838 | 79 | 250 | 0.0 | 0.0 | 0.00 | 0.00 | 0.00 | 90 | 1016.1 |
| 20260831050337 | 79 | 18 | 0.0 | 0.9 | 0.00 | 0.00 | 0.00 | 90 | 1016.4 |
| 20260831045832 | 79 | 290 | 0.0 | 0.0 | 0.00 | 0.00 | 0.00 | 90 | 1016.4 |
| 20260831045326 | 79 | 123 | 0.0 | 0.0 | 0.00 | 0.00 | 0.00 | 90 | 1016.2 |
| 20260831044821 | 79 | 31 | 0.9 | 0.9 | 0.00 | 0.00 | 0.00 | 90 | 1016.0 |
| 20260831044316 | 79 | 180 | 0.0 | 0.0 | 0.00 | 0.00 | 0.00 | 90 | 1016.2 |
| 20260831043813 | 79 | 205 | 0.0 | 0.0 | 0.00 | 0.00 | 0.00 | 89 | 1016.3 |
| 20260831043312 | 80 | 190 | 0.9 | 1.7 | 0.00 | 0.00 | 0.00 | 88 | 1016.1 |
| 20260831042807 | 80 | 16 | 0.9 | 1.7 | 0.00 | 0.00 | 0.00 | 88 | 1016.0 |
| 20260831042307 | 80 | 25 | 0.0 | 0.0 | 0.00 | 0.00 | 0.00 | 88 | 1016.4 |
| 20260831041802 | 79 | 212 | 0.0 | 0.0 | 0.00 | 0.00 | 0.00 | 88 | 1016.4 |
| 20260831041301 | 79 | 211 | 0.0 | 0.0 | 0.00 | 0.00 | 0.00 | 88 | 1016.3 |
| 20260831040756 | 79 | 33 | 0.0 | 0.0 | 0.00 | 0.00 | 0.00 | 88 | 1016.4 |
| 20260831040255 | 79 | 250 | 0.0 | 0.0 | 0.00 | 0.00 | 0.00 | 88 | 1016.2 |
| 20260831035754 | 80 | 127 | 0.0 | 0.0 | 0.00 | 0.00 | 0.00 | 87 | 1016.4 |
| 20260831035253 | 80 | 38 | 0.0 | 0.0 | 0.00 | 0.00 | 0.00 | 87 | 1016.4 |
| 20260831034752 | 80 | 216 | 0.9 | 0.9 | 0.00 | 0.00 | 0.00 | 86 | 1016.4 |
| 20260831034248 | 80 | 6 | 0.0 | 1.7 | 0.00 | 0.00 | 0.00 | 86 | 1016.4 |
| 20260831033743 | 80 | 262 | 0.0 | 1.7 | 0.00 | 0.00 | 0.00 | 86 | 1016.5 |
| 20260831033243 | 80 | 3 | 0.0 | 1.7 | 0.00 | 0.00 | 0.00 | 85 | 1016.4 |
| 20260831032738 | 80 | 113 | 0.0 | 0.9 | 0.00 | 0.00 | 0.00 | 85 | 1016.7 |
| 20260831032233 | 80 | 73 | 0.0 | 0.9 | 0.00 | 0.00 | 0.00 | 85 | 1016.6 |
| 20260831031728 | 80 | 259 | 0.9 | 0.9 | 0.00 | 0.00 | 0.00 | 84 | 1016.6 |
| 20260831031223 | 80 | 55 | 0.9 | 0.9 | 0.00 | 0.00 | 0.00 | 84 | 1016.8 |
| 20260831030722 | 80 | 31 | 0.0 | 0.0 | 0.00 | 0.00 | 0.00 | 84 | 1016.9 |